TimeCDT,TemperatureF,Dew PointF,Humidity,Sea Level PressureIn,VisibilityMPH,Wind Direction,Wind SpeedMPH,Gust SpeedMPH,PrecipitationIn,Events,Conditions,WindDirDegrees,DateUTC
12:53 AM,70.0,66.9,90,30.06,10.0,ENE,5.8,-,N/A,,Clear,70,2013-08-01 05:53:00
1:53 AM,69.1,66.9,93,30.06,10.0,ENE,5.8,-,N/A,,Clear,70,2013-08-01 06:53:00
2:53 AM,68.0,66.0,93,30.07,10.0,ENE,3.5,-,N/A,,Clear,60,2013-08-01 07:53:00
3:53 AM,66.0,64.9,96,30.07,8.0,NE,4.6,-,N/A,,Clear,50,2013-08-01 08:53:00
4:53 AM,66.0,64.9,96,30.06,7.0,Calm,Calm,-,N/A,,Clear,0,2013-08-01 09:53:00
5:53 AM,64.9,64.0,97,30.08,6.0,Calm,Calm,-,N/A,,Clear,0,2013-08-01 10:53:00
6:53 AM,64.9,64.0,97,30.08,6.0,Calm,Calm,-,N/A,,Clear,0,2013-08-01 11:53:00
7:53 AM,70.0,66.9,90,30.09,10.0,SE,3.5,-,0.01,,Clear,130,2013-08-01 12:53:00
8:53 AM,73.9,66.0,76,30.10,10.0,East,5.8,-,N/A,,Clear,100,2013-08-01 13:53:00
9:53 AM,78.1,66.0,66,30.09,10.0,East,5.8,-,N/A,,Clear,90,2013-08-01 14:53:00
10:53 AM,80.1,64.9,60,30.10,10.0,ESE,6.9,-,N/A,,Clear,110,2013-08-01 15:53:00
11:53 AM,82.0,64.0,54,30.10,10.0,Variable,6.9,-,N/A,,Clear,0,2013-08-01 16:53:00
12:53 PM,84.0,64.9,53,30.08,10.0,Variable,3.5,-,N/A,,Clear,0,2013-08-01 17:53:00
1:53 PM,86.0,64.0,48,30.06,10.0,Variable,5.8,-,N/A,,Clear,0,2013-08-01 18:53:00
2:53 PM,87.1,64.0,46,30.05,10.0,Variable,6.9,-,N/A,,Clear,0,2013-08-01 19:53:00
3:53 PM,88.0,64.0,45,30.04,10.0,ENE,6.9,-,N/A,,Clear,60,2013-08-01 20:53:00
4:53 PM,87.1,64.0,46,30.02,10.0,Variable,5.8,-,N/A,,Clear,0,2013-08-01 21:53:00
5:53 PM,86.0,64.9,49,29.99,10.0,East,5.8,-,N/A,,Clear,100,2013-08-01 22:53:00
6:53 PM,84.9,64.9,51,29.98,10.0,Variable,5.8,-,N/A,,Clear,0,2013-08-01 23:53:00
7:53 PM,82.0,66.0,58,29.98,10.0,ESE,4.6,-,N/A,,Clear,110,2013-08-02 00:53:00
8:53 PM,75.9,68.0,76,29.98,10.0,Calm,Calm,-,N/A,,Clear,0,2013-08-02 01:53:00
9:53 PM,75.0,68.0,79,29.98,10.0,ESE,4.6,-,N/A,,Clear,110,2013-08-02 02:53:00
10:53 PM,73.9,66.9,79,29.98,10.0,ESE,5.8,-,N/A,,Clear,120,2013-08-02 03:53:00
11:53 PM,75.0,66.0,73,29.96,10.0,SSE,9.2,-,N/A,,Clear,150,2013-08-02 04:53:00